Location: Hilton Head Island
(32.2163°N, 80.7526°W)
Time: 20:51:18
(UTC-04:00)

Vanguard 2 Rocket - Pass Details

Date: 16 February 2026
Orbit: 553 x 3286 km, 32.9° (Epoch: 10 March)

Event Time Altitude Azimuth Distance (km) Brightness Sun altitude
Rises 19:26:54 0° 283° (WNW) 5,003 12.1 -16.8°
Reaches altitude 10° 19:31:16 10° 275° (W) 3,518 11.2 -17.8°
Maximum altitude 19:38:11 30° 218° (SW) 1,687 8.6 -19.2°
Drops below altitude 10° 19:42:46 10° 157° (SSE) 2,272 8.7 -20.2°
Enters shadow 19:43:01 - 155° (SSE) 2,345 8.8 -20.3°
Sets 19:45:00 0° 145° (SE) 3,002 - -20.7°
